KC7NGC-B Weather Reports


time (UTC)temp
F
wind
direction
speed
knots
gust
knots
rain 1hr
in
rain 24hr
in
rain mn
in
humidity
%
barometer
mb
20260506072636 72 258 3.5 4.3 0.00 0.00 0.00 39 1012.7
20260506071629 73 320 1.7 2.6 0.00 0.00 0.00 38 1012.7
20260506070654 72 188 0.9 1.7 0.00 0.00 0.00 38 1012.6
20260506061641 73 215 2.6 3.5 0.00 0.00 0.00 39 1012.5
20260506060719 73 193 0.9 2.6 0.00 0.00 0.00 39 1012.5
20260506050624 74 212 5.2 7.8 0.00 0.00 0.00 37 1012.2
20260506044637 75 180 4.3 6.1 0.00 0.00 0.00 36 1012.3
20260506043633 74 209 4.3 8.7 0.00 0.00 0.00 38 1012.3
20260506042716 74 211 2.6 4.3 0.00 0.00 0.00 37 1012.3
20260506041628 75 208 3.5 4.3 0.00 0.00 0.00 36 1012.2
20260506040633 75 218 3.5 5.2 0.00 0.00 0.00 34 1012.2
20260506035623 76 218 3.5 5.2 0.00 0.00 0.00 32 1012.0
20260506034626 76 224 2.6 3.5 0.00 0.00 0.00 32 1012.0
20260506033623 75 209 1.7 2.6 0.00 0.00 0.00 33 1011.8
20260506032619 75 161 1.7 2.6 0.00 0.00 0.00 33 1011.9
20260506031722 76 227 0.9 1.7 0.00 0.00 0.00 34 1011.7
20260506030635 77 0.0 0.9 0.00 0.00 0.00 33 1011.8
20260506025633 79 217 1.7 1.7 0.00 0.00 0.00 33 1011.5
20260506024633 79 0.0 0.9 0.00 0.00 0.00 27 1011.5
20260506023642 80 21 1.7 1.7 0.00 0.00 0.00 27 1011.5
20260506022636 80 52 2.6 2.6 0.00 0.00 0.00 26 1011.5
20260506021624 81 66 2.6 3.5 0.00 0.00 0.00 26 1011.5
20260506020624 81 28 1.7 3.5 0.00 0.00 0.00 27 1011.7
20260506015622 82 87 0.9 1.7 0.00 0.00 0.00 25 1011.6
20260506014647 82 56 2.6 3.5 0.00 0.00 0.00 26 1011.5
20260506013656 82 29 3.5 4.3 0.00 0.00 0.00 25 1011.5
20260506012633 82 20 4.3 5.2 0.00 0.00 0.00 24 1011.5
20260506011634 82 15 5.2 7.0 0.00 0.00 0.00 24 1011.5
20260506010626 83 9 6.1 7.8 0.00 0.00 0.00 24 1011.5
20260506005647 82 24 2.6 3.5 0.00 0.00 0.00 24 1011.6
20260506004645 82 24 4.3 5.2 0.00 0.00 0.00 25 1011.8
20260506003624 83 16 5.2 7.0 0.00 0.00 0.00 24 1011.7
20260506002618 82 34 3.5 7.0 0.00 0.00 0.00 25 1011.8
20260506001635 82 42 6.1 7.8 0.00 0.00 0.00 25 1011.7
20260506000635 82 43 3.5 5.2 0.00 0.00 0.00 26 1011.8
20260505235632 83 44 6.1 8.7 0.00 0.00 0.00 24 1011.9
20260505234631 82 38 4.3 6.1 0.00 0.00 0.00 27 1012.0
20260505233629 82 326 2.6 3.5 0.00 0.00 0.00 27 1012.1
20260505232627 82 294 1.7 5.2 0.00 0.00 0.00 26 1012.1
20260505231625 82 23 4.3 5.2 0.00 0.00 0.00 25 1012.3
20260505230619 82 29 5.2 7.0 0.00 0.00 0.00 27 1012.3
20260505225617 82 25 7.8 13.0 0.00 0.00 0.00 27 1012.4
20260505224640 82 33 4.3 7.0 0.00 0.00 0.00 27 1012.5
20260505223658 81 54 5.2 11.3 0.00 0.00 0.00 28 1012.7
20260505222630 81 81 5.2 7.0 0.00 0.00 0.00 29 1012.6
20260505221631 82 51 7.0 8.7 0.00 0.00 0.00 28 1012.6
20260505220628 81 27 6.1 9.6 0.00 0.00 0.00 29 1012.8
20260505215630 82 36 7.0 10.4 0.00 0.00 0.00 29 1012.7
20260505214626 81 63 6.1 7.8 0.00 0.00 0.00 29 1012.9
20260505213620 81 65 7.8 12.2 0.00 0.00 0.00 29 1013.0
20260505212619 80 45 5.2 10.4 0.00 0.00 0.00 30 1013.2
20260505211636 81 39 7.8 9.6 0.00 0.00 0.00 30 1013.0
20260505210639 80 70 6.1 8.7 0.00 0.00 0.00 30 1013.1
20260505205634 80 46 6.1 11.3 0.00 0.00 0.00 31 1013.3
20260505204634 80 70 5.2 6.1 0.00 0.00 0.00 32 1013.4
20260505203626 79 66 4.3 6.1 0.00 0.00 0.00 33 1013.4
20260505202627 79 40 7.8 12.2 0.00 0.00 0.00 33 1013.5
20260505201625 80 359 5.2 7.8 0.00 0.00 0.00 31 1013.6
20260505200619 79 14 6.1 7.8 0.00 0.00 0.00 30 1013.5
20260505195620 80 354 9.6 13.0 0.00 0.00 0.00 30 1013.4
20260505194638 78 5 7.8 11.3 0.00 0.00 0.00 33 1013.7
20260505193634 78 18 9.6 13.9 0.00 0.00 0.00 33 1013.5
20260505192640 77 14 4.3 7.0 0.00 0.00 0.00 35 1013.7
20260505191649 76 29 5.2 10.4 0.00 0.00 0.00 36 1013.5
20260505190626 76 6 10.4 13.9 0.00 0.00 0.00 35 1013.8
20260505185631 76 26 7.8 11.3 0.00 0.00 0.00 36 1013.8
20260505184622 75 13 7.8 13.0 0.00 0.00 0.00 37 1013.6
20260505183620 75 13 10.4 13.0 0.00 0.00 0.00 36 1013.7
20260505182622 74 2 5.2 7.8 0.00 0.00 0.00 37 1013.7
20260505181638 73 3 7.0 10.4 0.00 0.00 0.00 37 1013.8
20260505180633 73 21 8.7 13.0 0.00 0.00 0.00 38 1013.8
20260505175635 72 338 6.1 7.8 0.00 0.00 0.00 38 1013.8
20260505174633 72 341 7.8 13.0 0.00 0.00 0.00 39 1013.9
20260505173634 72 348 9.6 11.3 0.00 0.00 0.00 39 1013.9
20260505172630 71 6 9.6 11.3 0.00 0.00 0.00 39 1013.8
20260505171624 71 344 8.7 14.8 0.00 0.00 0.00 40 1013.8
20260505170628 70 355 8.7 11.3 0.00 0.00 0.00 42 1013.9
20260505165621 69 350 6.1 8.7 0.00 0.00 0.00 43 1013.7
20260505164640 69 348 7.0 11.3 0.00 0.00 0.00 42 1013.6
20260505163638 69 349 9.6 13.9 0.00 0.00 0.00 41 1013.5
20260505162632 67 326 12.2 15.6 0.00 0.00 0.00 44 1013.6
20260505161633 67 6 7.8 10.4 0.00 0.00 0.00 44 1013.5
20260505160628 67 345 7.8 12.2 0.00 0.00 0.00 45 1013.4
20260505152618 63 315 7.8 10.4 0.00 0.00 0.00 54 1013.0
20260505151637 64 312 6.1 8.7 0.00 0.00 0.00 51 1012.9
20260505150635 63 333 5.2 7.8 0.00 0.00 0.00 53 1012.8
20260505140625 61 271 1.7 1.7 0.00 0.00 0.00 59 1012.3
20260505124625 56 311 3.5 5.2 0.00 0.00 0.00 66 1011.2
20260505123622 57 341 6.1 8.7 0.00 0.00 0.00 66 1011.0
20260505122622 59 340 4.3 6.1 0.00 0.00 0.00 62 1011.0
20260505121639 59 323 2.6 2.6 0.00 0.00 0.00 63 1010.8
20260505120634 61 321 2.6 3.5 0.00 0.00 0.00 59 1010.9
20260505115633 62 321 4.3 5.2 0.00 0.00 0.00 57 1010.5
20260505114633 61 328 3.5 4.3 0.00 0.00 0.00 57 1010.5
20260505113634 62 306 3.5 4.3 0.00 0.00 0.00 55 1010.5
20260505112649 61 305 2.6 2.6 0.00 0.00 0.00 55 1010.5
20260505111630 61 275 2.6 3.5 0.00 0.00 0.00 56 1010.3
20260505110638 62 289 3.5 4.3 0.00 0.00 0.00 55 1010.2
20260505101630 63 229 2.6 4.3 0.00 0.00 0.00 53 1009.5
20260505100633 64 299 0.9 1.7 0.00 0.00 0.00 51 1009.5
20260505095630 64 263 0.9 0.9 0.00 0.00 0.00 51 1009.3
20260505094623 65 287 0.9 1.7 0.00 0.00 0.00 48 1009.3
20260505093619 64 266 0.0 0.9 0.00 0.00 0.00 50 1009.3
20260505092617 64 252 0.9 1.7 0.00 0.00 0.00 51 1009.3
20260505091637 65 330 2.6 2.6 0.00 0.00 0.00 49 1009.3
20260505090639 64 356 1.7 1.7 0.00 0.00 0.00 52 1009.2
20260505085632 63 271 1.7 2.6 0.00 0.00 0.00 52 1009.1
20260505084630 65 10 2.6 3.5 0.00 0.00 0.00 49 1009.0
20260505083627 65 223 1.7 1.7 0.00 0.00 0.00 48 1009.0
20260505082635 65 327 3.5 3.5 0.00 0.00 0.00 47 1009.1
20260505081626 66 322 3.5 4.3 0.00 0.00 0.00 45 1009.1
20260505080640 67 327 3.5 3.5 0.00 0.00 0.00 42 1008.9
20260505075643 68 313 3.5 3.5 0.00 0.00 0.00 41 1009.0